Track IRIDIUM 102 now! 10-day predictions IRIDIUM 102 is classified as:
1 41920U 17003D 23341.78738846 .00000350 00000-0 11778-3 0 9996 2 41920 86.3959 113.9252 0001856 93.9300 266.2108 14.34217412361076